This demonstration page uses our WeatherBlox Daily Observations layout. Learn more.

Left ArrowRight Arrow

36.17497, -115.13722

Hourly Observations for March 31, 2020

Temp ( °F °C ) Dew Point ( °F °C ) Humidity (%) Winds ( mph kmh ) Pressure ( in mb ) Visibility ( mi km ) Precip ( " mm )
12:53 am 00:53 Clear 56 13.3 34 1.1 44 44 NW 5 7 30.18 1022 10 16 N/A
1:53 am 01:53 Clear 55 12.8 33 0.6 44 44 WNW 3 6 30.16 1022 10 16 N/A
2:53 am 02:53 Clear 53 11.7 33 0.6 47 47 NW 6 9 30.15 1021 10 16 N/A
3:53 am 03:53 Clear 52 11.1 30 -1.1 43 43 WNW 6 9 30.14 1021 10 16 N/A
4:53 am 04:53 Clear 52 11.1 33 0.6 49 49 W 5 7 30.14 1021 10 16 N/A
5:53 am 05:53 Clear 51 10.6 32 undefined 48 48 WSW 3 6 30.14 1021 10 16 N/A
6:53 am 06:53 Sunny 52 11.1 32 undefined 47 47 N N/A 30.15 1021 10 16 N/A
7:53 am 07:53 Sunny 56 13.3 32 undefined 40 40 N 5 7 30.16 1021 10 16 N/A
8:53 am 08:53 Sunny 60 15.6 32 undefined 35 35 N N/A 30.16 1021 10 16 N/A
9:53 am 09:53 Sunny 65 18.3 32 undefined 29 29 N 3 6 30.14 1021 10 16 N/A
10:53 am 10:53 Sunny 66 18.9 31 -0.6 27 27 N N/A 30.14 1021 10 16 N/A
11:53 am 11:53 Sunny 69 20.6 31 -0.6 24 24 E 5 7 30.09 1019 10 16 N/A
12:53 pm 12:53 Sunny 71 21.7 29 -1.7 21 21 VRB 5 7 30.06 1018 10 16 N/A
1:53 pm 13:53 Sunny 72 22.2 31 -0.6 22 22 SE 5 7 30.03 1017 10 16 N/A
2:53 pm 14:53 Sunny 75 23.9 30 -1.1 19 19 VRB 3 6 29.99 1016 10 16 N/A
3:53 pm 15:53 Sunny 75 23.9 29 -1.7 18 18 ESE 5 7 29.95 1014 10 16 N/A
4:53 pm 16:53 Sunny 76 24.4 28 -2.2 17 17 SSE 8 13 29.91 1013 10 16 N/A
5:53 pm 17:53 Sunny 75 23.9 32 undefined 21 21 ESE 7 11 29.90 1012 10 16 N/A
6:53 pm 18:53 Sunny 73 22.8 32 undefined 22 22 E 9 15 29.88 1012 10 16 N/A
7:53 pm 19:53 Clear 70 21.1 32 undefined 25 25 E 8 13 29.88 1012 10 16 N/A
8:53 pm 20:53 Clear 69 20.6 31 -0.6 24 24 N 6 9 29.87 1012 10 16 N/A
9:53 pm 21:53 Clear 67 19.4 32 undefined 27 27 NNE 5 7 29.86 1011 10 16 N/A
10:53 pm 22:53 Clear 64 17.8 32 undefined 30 30 NNE 5 7 29.84 1011 10 16 N/A
11:53 pm 23:53 Clear 63 17.2 31 -0.6 30 30 N N/A 29.83 1010 10 16 N/A

Powered by AerisWeather